Wright-Patt AFB, OH

1:52 AM EST on December 17, 2017 (GMT -0500)
Wright-Patterson Air Force Base

Weather History for KFFO - September, 2013

Change the Weather History Date:

Saturday, September 7, 2013

  Actual Average Record
Temperature  
Mean Temperature 70 °F -  
Max Temperature 86 °F 78 °F 94 °F (2010)
Min Temperature 53 °F 56 °F 46 °F (2017)
Cooling Degree Days 4    
Growing Degree Days 20 (Base 50)    
Moisture  
Dew Point 56 °F    
Average Humidity 64    
Maximum Humidity 82    
Minimum Humidity 42    
Precipitation  
Precipitation 0.00 in - - ()
Sea Level Pressure  
Sea Level Pressure 30.05 in    
Wind  
Wind Speed 3 mph (SW)    
Max Wind Speed 10 mph    
Max Gust Speed -    
Visibility 10 miles    
Events      
Averages and records for this station are not official NWS values.
T = Trace of Precipitation, MM = Missing Value Source: NWS Daily Summary

Daily Weather History Graph

Daily Weather History Graph

Search for Another Location

Airport or City:

Trip Planner

Search our weather history database for the weather conditions in past years. The results will help you decide how hot, cold, wet, or windy it might be!

Date:

Astronomy

Sep. 07, 2013 Rise Set
Actual Time 7:09 AM EDT 7:57 PM EDT
Civil Twilight 6:42 AM EDT 8:24 PM EDT
Nautical Twilight 6:10 AM EDT 8:57 PM EDT
Astronomical Twilight 5:36 AM EDT 9:30 PM EDT
Moon 9:23 AM EDT (9/7) 8:55 PM EDT (9/7)
Length of Visible Light 13h 42m
Length of Day
12h 47m
Waxing Crescent, 5% of the Moon is Illuminated
Sep 7
Waxing Crescent
Sep 12
First Quarter
Sep 19
Full
Sep 26
Last Quarter
Oct 4
New

Hourly Weather History & Observations

Time (EDT) Temp. Heat Index Dew Point Humidity Pressure Visibility Wind Dir Wind Speed Gust Speed Precip Events Conditions
12:58 AM 57.7 °F - 48.4 °F 71% 30.12 in 10.0 mi WNW 1.2 mph - N/A   Clear
1:58 AM 54.1 °F - 48.2 °F 80% 30.12 in 10.0 mi West 2.3 mph - N/A   Clear
2:58 AM 55.9 °F - 48.0 °F 75% 30.11 in 10.0 mi Calm Calm - N/A   Clear
3:58 AM 56.1 °F - 47.8 °F 74% 30.11 in 10.0 mi Calm Calm - N/A   Clear
4:58 AM 54.7 °F - 47.7 °F 77% 30.11 in 10.0 mi Calm Calm - N/A   Clear
5:58 AM 54.7 °F - 48.2 °F 79% 30.11 in 10.0 mi Calm Calm - N/A   Clear
6:18 AM 53.6 °F - 48.2 °F 82% 30.11 in 10.0 mi Calm Calm - N/A   Clear
6:58 AM 54.0 °F - 48.4 °F 81% 30.10 in 10.0 mi Calm Calm - N/A   Partly Cloudy
7:58 AM 57.0 °F - 49.6 °F 76% 30.10 in 10.0 mi SE 2.3 mph - N/A   Partly Cloudy
8:58 AM 61.0 °F - 50.7 °F 69% 30.09 in 10.0 mi SE 1.2 mph - N/A   Clear
9:58 AM 67.5 °F - 54.0 °F 62% 30.09 in 10.0 mi SSW 5.8 mph - N/A   Clear
10:58 AM 74.7 °F - 55.2 °F 51% 30.09 in 10.0 mi SSW 8.1 mph - N/A   Clear
11:58 AM 78.6 °F - 58.6 °F 50% 30.08 in 10.0 mi Variable 5.8 mph - N/A   Clear
12:58 PM 81.9 °F 82.9 °F 62.4 °F 52% 30.06 in 10.0 mi West 8.1 mph - N/A   Partly Cloudy
1:58 PM 84.0 °F 85.2 °F 63.3 °F 50% 30.04 in 10.0 mi SW 8.1 mph - N/A   Partly Cloudy
2:58 PM 85.1 °F 85.7 °F 61.9 °F 46% 30.01 in 10.0 mi WSW 10.4 mph - N/A   Scattered Clouds
3:58 PM 86.2 °F 86.3 °F 61.5 °F 43% 29.99 in 10.0 mi WSW 10.4 mph - N/A   Clear
4:58 PM 86.5 °F 86.5 °F 61.2 °F 42% 29.98 in 10.0 mi WSW 10.4 mph - N/A   Clear
5:58 PM 85.8 °F 85.9 °F 60.6 °F 43% 29.97 in 10.0 mi WSW 6.9 mph - N/A   Clear
6:58 PM 83.1 °F 83.7 °F 61.3 °F 48% 29.97 in 10.0 mi WSW 9.2 mph - N/A   Clear
7:58 PM 79.2 °F - 61.9 °F 55% 29.97 in 10.0 mi SW 5.8 mph - N/A   Clear
8:58 PM 72.7 °F - 62.6 °F 71% 29.97 in 10.0 mi SW 5.8 mph - N/A   Clear
9:58 PM 71.8 °F - 63.5 °F 75% 29.97 in 10.0 mi SW 5.8 mph - N/A   Partly Cloudy
10:58 PM 73.2 °F - 64.0 °F 73% 29.96 in 10.0 mi SW 4.6 mph - N/A   Scattered Clouds
11:58 PM 75.4 °F - 64.2 °F 68% 29.97 in 10.0 mi SW 6.9 mph - N/A   Scattered Clouds